Back to catalog

COSMOS 2251 DEB

AliveLEO
NORAD 35441·DEBRIS·🇷🇺 Russia

Launched Jun 16, 1993 from Plesetsk Cosmodrome

Loading…

Next Passes (next 24 hours)

TLE

FreshSource: Space-Track

Epoch: Sep 14, 2026, 07:54 UTC

1 35441U 93036AKK 26257.32935155  .00003653  00000-0  66073-3 0  9995
2 35441  74.1321 131.3570 0032163 301.8828  57.9212 14.66412723914659

Track COSMOS 2251 DEB in real time with AllMySat

Download on the App Store